HST 1 20580U 90037B 25091.46999278 .00010749 00000-0 42079-3 0 9991 2 20580 28.4678 204.5482 0001734 338.2290 21.8230 15.24142639720966 ISS (ZARYA) 1 25544U 98067A 25092.10239068 .00016360 00000-0 28998-3 0 9992 2 25544 51.6353 323.8439 0003442 72.6732 287.4633 15.50393872503360 CXO 1 25867U 99040B 25092.74607696 .00000906 00000-0 00000-0 0 9998 2 25867 47.8580 133.4184 8540188 308.1512 0.0724 0.37808999 15653